When you browse on this site, cookies collect data to enhance your experience and personalize the content and advertising you see.
Visit our Privacy Policy to learn more. By continuing to use the site, you agree to this use of cookies and data.
  • In Hungary
  • List of Countries
  • For 7 days
  • Water Temperature
  • Satellite Maps
  • Weather Map
  • News
  • Weather Widgets
  • user-avatar
    Login

    Hourly Weather Sloboda-Bolekhivs'ka

    Today, 11 December, Tuesday

    Time Temperature Precipitation Wind Pressure Humidity
    00:00 -2°C° 0 mm 3 mps 707 mmHg 98%
    01:00 -2°C° 0 mm 3 mps 707 mmHg 98%
    02:00 -2°C° 0 mm 3 mps 707 mmHg 97%
    03:00 -4°C° 0 mm 3 mps 707 mmHg 97%
    04:00 -4°C° 0 mm 3 mps 707 mmHg 97%
    05:00 -4°C° 0.1 mm 3 mps 707 mmHg 99%
    06:00 -4°C° 0 mm 3 mps 707 mmHg 96%
    07:00 -5°C° 0 mm 3 mps 707 mmHg 96%
    08:00 -5°C° 0 mm 3 mps 707 mmHg 97%
    09:00 -5°C° 0 mm 3 mps 707 mmHg 97%
    10:00 -5°C° 0 mm 4 mps 707 mmHg 95%
    11:00 -4°C° 0 mm 4 mps 708 mmHg 93%
    12:00 -3°C° 0 mm 4 mps 708 mmHg 92%
    13:00 -4°C° 0 mm 5 mps 708 mmHg 90%
    14:00 -4°C° 0 mm 5 mps 708 mmHg 90%
    15:00 -4°C° 0 mm 5 mps 708 mmHg 91%
    16:00 -3°C° 0 mm 4 mps 708 mmHg 92%
    17:00 -5°C° 0 mm 5 mps 708 mmHg 93%
    18:00 -5°C° 0 mm 5 mps 708 mmHg 93%
    19:00 -6°C° 0 mm 5 mps 708 mmHg 93%
    20:00 -6°C° 0 mm 5 mps 708 mmHg 92%
    21:00 -5°C° 0 mm 4 mps 708 mmHg 91%
    22:00 -5°C° 0 mm 3 mps 708 mmHg 92%
    23:00 -5°C° 0 mm 3 mps 708 mmHg 93%

    Tomorrow, 12 December, Wednesday

    Time Temperature Precipitation Wind Pressure Humidity
    00:00 -5°C° 0 mm 3 mps 708 mmHg 94%
    01:00 -5°C° 0 mm 2 mps 708 mmHg 94%
    02:00 -5°C° 0 mm 2 mps 709 mmHg 95%
    03:00 -3°C° 0 mm 1 mps 709 mmHg 95%
    04:00 -2°C° 0 mm 1 mps 709 mmHg 92%
    05:00 -2°C° 0 mm 1 mps 709 mmHg 93%
    06:00 -3°C° 0 mm 1 mps 709 mmHg 93%
    07:00 -3°C° 0 mm 1 mps 709 mmHg 99%
    08:00 -4°C° 0 mm 1 mps 709 mmHg 100%
    09:00 -6°C° 0 mm 2 mps 709 mmHg 100%
    10:00 -5°C° 0 mm 2 mps 710 mmHg 100%
    11:00 -6°C° 0 mm 3 mps 710 mmHg 100%
    12:00 -6°C° 0 mm 3 mps 710 mmHg 100%
    13:00 -5°C° 0 mm 4 mps 709 mmHg 100%
    14:00 -5°C° 0 mm 4 mps 709 mmHg 100%
    15:00 -7°C° 0 mm 5 mps 709 mmHg 100%
    16:00 -7°C° 0.1 mm 5 mps 709 mmHg 100%
    17:00 -7°C° 0.5 mm 5 mps 709 mmHg 100%
    18:00 -7°C° 0.7 mm 5 mps 709 mmHg 100%
    19:00 -8°C° 0.9 mm 6 mps 708 mmHg 100%
    20:00 -8°C° 1.1 mm 6 mps 708 mmHg 100%
    21:00 -8°C° 1.3 mm 6 mps 708 mmHg 100%
    22:00 -6°C° 1.2 mm 6 mps 708 mmHg 100%
    23:00 -6°C° 1.1 mm 5 mps 708 mmHg 100%

    Day after tomorrow, 13 December, Thursday

    Time Temperature Precipitation Wind Pressure Humidity
    00:00 -6°C° 1 mm 5 mps 708 mmHg 100%
    01:00 -6°C° 0.9 mm 5 mps 708 mmHg 100%
    02:00 -7°C° 0.8 mm 4 mps 708 mmHg 100%
    03:00 -7°C° 0.7 mm 4 mps 708 mmHg 100%
    04:00 -7°C° 0.8 mm 4 mps 707 mmHg 100%
    05:00 -7°C° 0.7 mm 4 mps 707 mmHg 100%
    06:00 -7°C° 0.6 mm 4 mps 707 mmHg 100%
    07:00 -6°C° 0.5 mm 3 mps 707 mmHg 100%
    08:00 -6°C° 0.5 mm 3 mps 707 mmHg 100%
    09:00 -6°C° 0.5 mm 3 mps 707 mmHg 100%
    10:00 -6°C° 0.6 mm 3 mps 708 mmHg 100%
    11:00 -5°C° 0.5 mm 3 mps 708 mmHg 100%
    12:00 -5°C° 0.5 mm 3 mps 708 mmHg 100%
    13:00 -5°C° 0.4 mm 3 mps 708 mmHg 100%
    14:00 -5°C° 0.3 mm 3 mps 708 mmHg 100%
    15:00 -5°C° 0.3 mm 3 mps 708 mmHg 100%
    16:00 -5°C° 0.3 mm 3 mps 709 mmHg 100%
    17:00 -5°C° 0.4 mm 3 mps 709 mmHg 100%
    18:00 -6°C° 0.5 mm 3 mps 709 mmHg 100%
    19:00 -5°C° 0.3 mm 2 mps 710 mmHg 100%
    20:00 -6°C° 0.3 mm 2 mps 710 mmHg 100%
    21:00 -6°C° 0.2 mm 2 mps 710 mmHg 100%
    22:00 -6°C° 0.2 mm 2 mps 710 mmHg 100%
    23:00 -6°C° 0.2 mm 2 mps 711 mmHg 100%

    14 December, Friday

    Time Temperature Precipitation Wind Pressure Humidity
    00:00 -7°C° 0.2 mm 2 mps 711 mmHg 100%
    01:00 -7°C° 0.1 mm 2 mps 711 mmHg 100%
    02:00 -7°C° 0.1 mm 2 mps 711 mmHg 100%
    03:00 -9°C° 0.1 mm 3 mps 711 mmHg 100%
    04:00 -9°C° 0.1 mm 3 mps 711 mmHg 100%
    05:00 -9°C° 0.1 mm 3 mps 712 mmHg 100%
    06:00 -9°C° 0.1 mm 3 mps 712 mmHg 100%
    07:00 -9°C° 0.1 mm 3 mps 712 mmHg 100%
    08:00 -9°C° 0.1 mm 3 mps 713 mmHg 100%
    09:00 -9°C° 0.1 mm 3 mps 713 mmHg 100%
    10:00 -9°C° 0 mm 3 mps 714 mmHg 100%
    11:00 -8°C° 0 mm 3 mps 714 mmHg 100%
    12:00 -8°C° 0 mm 3 mps 715 mmHg 100%
    13:00 -7°C° 0 mm 3 mps 715 mmHg 100%
    14:00 -6°C° 0 mm 2 mps 715 mmHg 100%

    15 December, Saturday

    Time Temperature Precipitation Wind Pressure Humidity

    16 December, Sunday

    Time Temperature Precipitation Wind Pressure Humidity
    Show more